Location: Austin
(30.3000°N, 97.7500°W)
Time: 12:00:52
(UTC-05:00)

Hubble Space Telescope - Pass Details

Date: 05 September 2024
Orbit: 506 x 509 km, 28.5° (Epoch: 10 September)

Event Time Altitude Azimuth Distance (km) Brightness Sun altitude
Rises 21:48:26 0° 270° (W) 2,596 5.3 -25.7°
Reaches altitude 10° 21:50:52 10° 259° (W) 1,710 4.0 -26.2°
Enters shadow 21:52:50 22° 236° (SW) 1,133 2.7 -26.6°
